{"data":{"norad_id":57143,"intl_designator":"2023-090AU","name":"STARLINK-5358","alt_names":[],"object_type":"PAYLOAD","status":"ACTIVE","operator":null,"country":"US","launch_date":"2023-06-23","launch_site_code":"AFETR","launch_vehicle":null,"mission":null,"orbit_class":"UNKNOWN","rcs_meters":null,"size_class":null,"mass_kg":null,"dimensions":null,"purposes":["comms"],"wikipedia_slug":null,"has_3d_model":false,"image_url":null,"decayed_at":null,"tle_current":{"epoch":"2026-09-20T09:32:26.411424Z","epoch_age_seconds":129855,"freshness":"FRESH","line1":"1 57143U 23090AU  26263.39752791 -.00000848  00000+0 -21289-4 0  9993","line2":"2 57143  43.0048 243.5450 0001416 288.9133  71.1565 15.27584804180132","mean_motion":15.27584804,"eccentricity":0.0001416,"inclination_deg":43.0048,"raan_deg":243.545,"arg_perigee_deg":288.9133,"mean_anomaly_deg":71.1565,"bstar":-2.1289e-5,"rev_number":18013,"period_min":94.266452260414,"perigee_km":482.06316925882,"apogee_km":484.00625308742,"semimajor_km":6861.1717111731,"source":"CELESTRAK","updated_at":"2026-09-21T09:00:33.566763Z"}}}